MONITOR-3 (RS58S)

Last updated on Mon Nov 03 2025 00:03:22 GMT+0000 (Coordinated Universal Time)

1 57180U 23091Q 25306.53084708 .00011632 00000+0 50904-3 0 9990 2 57180 97.5434 3.7821 0013536 170.5671 189.5822 15.22127679129741
UTC large
Height (km)
Speed (km/s)
/
Latitude / Longitude
Inclination (degrees)
Orbital Period (minutes)
Azimuth
Elevation
Range (km)
Doppler Factor

Next 0 passes for location: London (51.5072 / 0.1276)

Sorry there are no passes over London.